Station History

Weather Underground - logo

Station Historical Data
Daily Summary for February 17, 2018 Units:  Metric    English   Both
« Previous Day
Next Day »
Daily Weekly Monthly Yearly Custom
  High: Low: Average:
Temperature: 21.2 °C 2.6 °C 10.9 °C
Dew Point: 5.2 °C 0.6 °C 2.8 °C
Humidity: 89 % 27 % 62 %
Wind Speed: 11.1 km/h 0 km/h 1.3 km/h
Wind Gust: 5.6 km/h - -
Wind:- - WSW
Pressure: 1022.9 hPa 1016.5 hPa -
Precipitation: 0 mm    
Historical Graphs
 
 
Tabular Data for February 17, 2018
Time Temperature Dew Point Pressure Wind Wind Speed Wind Gust Humidity Rainfall Rate (Hourly)
00:00 5.5 °C 2.3 °C 1022.6 hPa Calm     80 % 0 mm
00:05 5.7 °C 2.6 °C 1022.6 hPa Calm     80 % 0 mm
00:10 5.7 °C 2.3 °C 1022.6 hPa Calm     79 % 0 mm
00:15 5.4 °C 2.1 °C 1022.6 hPa Calm     79 % 0 mm
00:20 5.3 °C 1.9 °C 1022.6 hPa Calm     79 % 0 mm
00:25 5.1 °C 1.9 °C 1022.2 hPa Calm     80 % 0 mm
00:30 4.9 °C 1.8 °C 1022.2 hPa Calm     80 % 0 mm
00:35 4.8 °C 1.8 °C 1022.2 hPa Calm     81 % 0 mm
00:41 4.5 °C 1.5 °C 1022.6 hPa Calm     81 % 0 mm
00:46 4.3 °C 1.5 °C 1022.6 hPa Calm     82 % 0 mm
00:51 4.2 °C 1.6 °C 1022.6 hPa Calm     83 % 0 mm
00:56 4.1 °C 1.5 °C 1022.6 hPa Calm     83 % 0 mm
01:01 4.1 °C 1.4 °C 1022.6 hPa Calm     83 % 0 mm
01:06 4 °C 1.4 °C 1022.6 hPa Calm     83 % 0 mm
01:11 3.8 °C 1.2 °C 1022.6 hPa Calm     83 % 0 mm
01:16 3.6 °C 1 °C 1022.6 hPa Calm     83 % 0 mm
01:21 3.6 °C 1.3 °C 1022.6 hPa Calm     85 % 0 mm
01:26 3.7 °C 1.6 °C 1022.6 hPa Calm     86 % 0 mm
01:31 3.9 °C 1.6 °C 1022.6 hPa Calm     85 % 0 mm
01:36 3.9 °C 1.6 °C 1022.6 hPa Calm     85 % 0 mm
01:41 3.9 °C 1.7 °C 1022.6 hPa Calm     85 % 0 mm
01:46 3.8 °C 1.3 °C 1022.6 hPa Calm     84 % 0 mm
01:51 3.7 °C 1.4 °C 1022.6 hPa Calm     85 % 0 mm
01:56 3.7 °C 1.6 °C 1022.6 hPa Calm     86 % 0 mm
02:01 3.9 °C 1.8 °C 1022.6 hPa Calm     86 % 0 mm
02:06 3.9 °C 1.5 °C 1022.6 hPa WNW 11.1 km/h   84 % 0 mm
02:11 4 °C 1.6 °C 1022.6 hPa Calm     84 % 0 mm
02:16 3.9 °C 1.7 °C 1022.6 hPa Calm     85 % 0 mm
02:21 3.8 °C 1.6 °C 1022.6 hPa Calm     85 % 0 mm
02:26 3.9 °C 1.6 °C 1022.6 hPa Calm     85 % 0 mm
02:31 3.8 °C 1.4 °C 1022.2 hPa Calm     84 % 0 mm
02:36 3.8 °C 1.3 °C 1022.6 hPa Calm     84 % 0 mm
02:41 3.7 °C 1.3 °C 1022.6 hPa Calm     84 % 0 mm
02:46 3.5 °C 1.1 °C 1022.6 hPa Calm     84 % 0 mm
02:51 3.3 °C 0.8 °C 1022.6 hPa Calm     84 % 0 mm
02:56 3.2 °C 1.1 °C 1022.6 hPa Calm     86 % 0 mm
03:01 3.3 °C 1.3 °C 1022.6 hPa Calm     87 % 0 mm
03:06 3.3 °C 1.4 °C 1022.2 hPa Calm     87 % 0 mm
03:11 3.3 °C 1.4 °C 1022.2 hPa Calm     87 % 0 mm
03:16 3.4 °C 1.4 °C 1022.2 hPa Calm     87 % 0 mm
03:21 3.4 °C 1.5 °C 1022.2 hPa Calm     87 % 0 mm
03:27 3.4 °C 1.3 °C 1022.2 hPa Calm     86 % 0 mm
03:32 3.3 °C 1.2 °C 1022.2 hPa Calm     86 % 0 mm
03:37 3.3 °C 1.2 °C 1022.2 hPa Calm     86 % 0 mm
03:42 3.3 °C 1.2 °C 1022.2 hPa Calm     86 % 0 mm
03:47 3.2 °C 1.1 °C 1022.2 hPa Calm     86 % 0 mm
03:52 3.1 °C 0.8 °C 1022.2 hPa Calm     85 % 0 mm
03:57 2.9 °C 0.7 °C 1022.2 hPa Calm     85 % 0 mm
04:02 2.9 °C 0.8 °C 1022.2 hPa Calm     86 % 0 mm
04:07 2.9 °C 0.9 °C 1022.2 hPa Calm     87 % 0 mm
04:12 3.1 °C 1.2 °C 1022.2 hPa Calm     87 % 0 mm
04:17 3.4 °C 1.3 °C 1022.2 hPa Calm     86 % 0 mm
04:22 3.6 °C 1.3 °C 1022.2 hPa Calm     85 % 0 mm
04:27 3.5 °C 1.2 °C 1022.2 hPa Calm     85 % 0 mm
04:32 3.4 °C 1.2 °C 1022.2 hPa Calm     85 % 0 mm
04:37 3.3 °C 1 °C 1021.9 hPa Calm     85 % 0 mm
04:42 3.3 °C 1.2 °C 1021.9 hPa Calm     86 % 0 mm
04:47 3.3 °C 0.8 °C 1021.9 hPa North 1.9 km/h   84 % 0 mm
04:52 3.2 °C 0.7 °C 1021.9 hPa Calm     84 % 0 mm
04:57 3.1 °C 0.8 °C 1021.9 hPa Calm     85 % 0 mm
05:02 2.9 °C 0.7 °C 1021.9 hPa Calm     85 % 0 mm
05:07 2.9 °C 0.8 °C 1021.9 hPa Calm     86 % 0 mm
05:12 2.8 °C 0.9 °C 1021.9 hPa Calm     87 % 0 mm
05:17 2.9 °C 0.9 °C 1021.9 hPa Calm     87 % 0 mm
05:22 2.9 °C 0.9 °C 1021.9 hPa Calm     87 % 0 mm
05:27 2.9 °C 1 °C 1021.9 hPa Calm     87 % 0 mm
05:32 2.9 °C 0.8 °C 1021.9 hPa Calm     86 % 0 mm
05:37 2.9 °C 0.8 °C 1021.9 hPa Calm     86 % 0 mm
05:42 2.9 °C 0.8 °C 1021.9 hPa Calm     86 % 0 mm
05:47 2.8 °C 0.7 °C 1021.9 hPa Calm     86 % 0 mm
05:52 2.7 °C 0.6 °C 1021.9 hPa Calm     86 % 0 mm
05:57 2.6 °C 0.7 °C 1021.9 hPa Calm     87 % 0 mm
06:02 2.7 °C 0.7 °C 1021.9 hPa Calm     87 % 0 mm
06:07 2.8 °C 1.1 °C 1021.9 hPa Calm     88 % 0 mm
06:12 2.9 °C 1 °C 1021.9 hPa Calm     87 % 0 mm
06:17 2.8 °C 0.7 °C 1021.9 hPa Calm     86 % 0 mm
06:22 2.8 °C 0.9 °C 1021.9 hPa Calm     87 % 0 mm
06:27 2.9 °C 1.2 °C 1021.9 hPa Calm     88 % 0 mm
06:32 3.1 °C 1.1 °C 1021.9 hPa Calm     87 % 0 mm
06:37 3.1 °C 1.1 °C 1021.9 hPa Calm     87 % 0 mm
06:42 3.1 °C 0.9 °C 1021.9 hPa Calm     86 % 0 mm
06:47 2.9 °C 0.8 °C 1021.9 hPa Calm     86 % 0 mm
06:53 2.9 °C 0.8 °C 1021.9 hPa Calm     86 % 0 mm
06:58 3 °C 0.9 °C 1022.2 hPa Calm     86 % 0 mm
07:03 2.9 °C 0.8 °C 1022.2 hPa Calm     86 % 0 mm
07:08 2.9 °C 0.8 °C 1022.2 hPa Calm     86 % 0 mm
07:13 2.8 °C 0.7 °C 1022.2 hPa Calm     86 % 0 mm
07:18 2.9 °C 0.8 °C 1022.2 hPa Calm     86 % 0 mm
07:23 2.8 °C 0.6 °C 1022.2 hPa Calm     85 % 0 mm
07:28 2.8 °C 0.7 °C 1022.6 hPa Calm     86 % 0 mm
07:33 2.8 °C 0.9 °C 1022.6 hPa Calm     87 % 0 mm
07:38 2.9 °C 1.2 °C 1022.6 hPa Calm     88 % 0 mm
07:43 3.2 °C 1.4 °C 1022.6 hPa Calm     88 % 0 mm
07:48 3.9 °C 2.3 °C 1022.6 hPa Calm     89 % 0 mm
07:53 5 °C 3 °C 1022.9 hPa Calm     87 % 0 mm
07:58 5.8 °C 2.9 °C 1022.9 hPa Calm     82 % 0 mm
08:03 6 °C 3 °C 1022.9 hPa Calm     81 % 0 mm
08:08 6.4 °C 3.2 °C 1022.9 hPa Calm     80 % 0 mm
08:13 7 °C 3.6 °C 1022.9 hPa Calm     79 % 0 mm
08:18 7.6 °C 3.8 °C 1022.9 hPa Calm     77 % 0 mm
08:23 8.2 °C 3.8 °C 1022.9 hPa Calm     74 % 0 mm
08:28 8.8 °C 4.1 °C 1022.9 hPa Calm     72 % 0 mm
08:33 9.8 °C 4 °C 1022.9 hPa SE 1.9 km/h 1.9 km/h 67 % 0 mm
08:38 10.6 °C 4.5 °C 1022.9 hPa Calm     66 % 0 mm
08:43 11.3 °C 5 °C 1022.9 hPa SE 1.9 km/h   65 % 0 mm
08:48 11.6 °C 4.6 °C 1022.9 hPa SE 1.9 km/h 1.9 km/h 62 % 0 mm
08:53 11.7 °C 4.6 °C 1022.9 hPa Calm   0.3 km/h 62 % 0 mm
08:58 12.1 °C 4.5 °C 1022.9 hPa SSE 3.7 km/h 3.7 km/h 60 % 0 mm
09:03 12.4 °C 4.8 °C 1022.9 hPa Calm     60 % 0 mm
09:08 12.5 °C 4.2 °C 1022.9 hPa ESE 1.6 km/h 1.6 km/h 57 % 0 mm
09:13 12.7 °C 4.3 °C 1022.9 hPa South 3.7 km/h 3.7 km/h 57 % 0 mm
09:18 12.9 °C 4.6 °C 1022.9 hPa South 5.6 km/h 5.6 km/h 57 % 0 mm
09:23 13.2 °C 4.4 °C 1022.9 hPa SE 3.7 km/h 3.7 km/h 55 % 0 mm
09:28 13.4 °C 4.5 °C 1022.9 hPa ENE 5.6 km/h 5.6 km/h 55 % 0 mm
09:33 13.6 °C 4.2 °C 1022.9 hPa ENE 5.6 km/h 5.6 km/h 53 % 0 mm
09:38 13.8 °C 4.6 °C 1022.9 hPa SSE 3.7 km/h 3.7 km/h 54 % 0 mm
09:43 14.1 °C 4.6 °C 1022.9 hPa SE 3.7 km/h 3.7 km/h 53 % 0 mm
09:48 14.3 °C 5.1 °C 1022.9 hPa SSE 3.2 km/h 3.2 km/h 54 % 0 mm
09:53 14.4 °C 5 °C 1022.9 hPa SSE 3.7 km/h 3.7 km/h 53 % 0 mm
09:58 14.6 °C 4.8 °C 1022.9 hPa SSE 5.6 km/h 5.6 km/h 52 % 0 mm
10:03 14.8 °C 4.7 °C 1022.6 hPa Calm     51 % 0 mm
10:08 14.9 °C 4.9 °C 1022.6 hPa SSE 1.9 km/h 1.9 km/h 51 % 0 mm
10:13 15.3 °C 5.2 °C 1022.6 hPa South 1.9 km/h   51 % 0 mm
10:18 15.7 °C 5 °C 1022.6 hPa SSE 1.9 km/h 1.9 km/h 49 % 0 mm
10:23 15.9 °C 4.6 °C 1022.6 hPa NW 1.6 km/h 1.6 km/h 47 % 0 mm
10:28 15.9 °C 5.2 °C 1022.6 hPa ENE 1.9 km/h 1.9 km/h 49 % 0 mm
10:33 15.9 °C 4.9 °C 1022.6 hPa NW 3.7 km/h 3.7 km/h 48 % 0 mm
10:38 15.9 °C 4.6 °C 1022.2 hPa NNW 3.7 km/h 3.7 km/h 47 % 0 mm
10:43 15.9 °C 4.9 °C 1022.2 hPa SSW 3.2 km/h 3.2 km/h 48 % 0 mm
10:48 16.1 °C 4.7 °C 1022.2 hPa SSE 3.7 km/h 3.7 km/h 47 % 0 mm
10:53 16.2 °C 5.1 °C 1022.2 hPa WSW 1.9 km/h   48 % 0 mm
10:58 16.6 °C 4.2 °C 1022.2 hPa East 3.7 km/h 3.7 km/h 44 % 0 mm
11:03 17 °C 4.3 °C 1022.2 hPa SSE 3.7 km/h 3.7 km/h 43 % 0 mm
11:09 17.3 °C 4.9 °C 1021.9 hPa ESE 3.7 km/h 3.7 km/h 44 % 0 mm
11:14 17.6 °C 4.9 °C 1021.9 hPa SSE 1.9 km/h 1.9 km/h 43 % 0 mm
11:19 17.8 °C 3.7 °C 1021.9 hPa NW 3.7 km/h 3.7 km/h 39 % 0 mm
11:24 17.6 °C 3.1 °C 1021.9 hPa North 5.6 km/h 5.6 km/h 38 % 0 mm
11:29 17.2 °C 3.1 °C 1021.6 hPa WNW 3.7 km/h 3.7 km/h 39 % 0 mm
11:34 17.2 °C 3.1 °C 1021.6 hPa South 3.7 km/h 3.7 km/h 39 % 0 mm
11:39 17.5 °C 3 °C 1021.6 hPa NW 5.6 km/h 5.6 km/h 38 % 0 mm
11:44 17.4 °C 3.7 °C 1021.6 hPa NNW 1.9 km/h 1.9 km/h 40 % 0 mm
11:49 17.9 °C 3.7 °C 1021.2 hPa ENE 1.9 km/h 1.9 km/h 39 % 0 mm
11:54 18.1 °C 3.6 °C 1021.2 hPa NNW 3.7 km/h 3.7 km/h 38 % 0 mm
11:59 18.3 °C 2.9 °C 1021.2 hPa West 3.7 km/h 3.7 km/h 36 % 0 mm
12:04 18.2 °C 2.4 °C 1021.2 hPa NW 1.9 km/h 1.9 km/h 35 % 0 mm
12:09 18.3 °C 3 °C 1020.9 hPa East 3.7 km/h 3.7 km/h 36 % 0 mm
12:14 18.7 °C 2.5 °C 1020.9 hPa East 3.7 km/h 3.7 km/h 34 % 0 mm
12:19 19.1 °C 3.2 °C 1020.9 hPa SSE 5.6 km/h 5.6 km/h 35 % 0 mm
12:24 19.4 °C 3.5 °C 1020.5 hPa North 3.7 km/h 3.7 km/h 35 % 0 mm
12:29 19.6 °C 2.8 °C 1020.5 hPa ESE 1.9 km/h 1.9 km/h 33 % 0 mm
12:34 19.4 °C 2.7 °C 1020.5 hPa NW 4.8 km/h 4.8 km/h 33 % 0 mm
12:39 19.3 °C 3.1 °C 1020.5 hPa NNE 1.9 km/h 1.9 km/h 34 % 0 mm
12:44 19.4 °C 3.2 °C 1020.2 hPa WNW 1.9 km/h 1.9 km/h 34 % 0 mm
12:49 19.5 °C 3.2 °C 1020.2 hPa NW 5.6 km/h 5.6 km/h 34 % 0 mm
12:54 19.6 °C 3.3 °C 1019.9 hPa NW 3.7 km/h 3.7 km/h 34 % 0 mm
12:59 19.6 °C 2.9 °C 1019.9 hPa SW 1.9 km/h 1.9 km/h 33 % 0 mm
13:05 20.1 °C 4.5 °C 1019.9 hPa SSE 5.6 km/h 5.6 km/h 36 % 0 mm
13:10 20.4 °C 3.2 °C 1019.5 hPa NW 3.7 km/h 3.7 km/h 32 % 0 mm
13:15 20.3 °C 2.6 °C 1019.5 hPa SE 3.7 km/h 3.7 km/h 31 % 0 mm
13:20 20.6 °C 3.3 °C 1019.5 hPa ESE 1.9 km/h 1.9 km/h 32 % 0 mm
13:25 20.6 °C 2.8 °C 1019.2 hPa WNW 3.7 km/h 3.7 km/h 31 % 0 mm
13:30 20.4 °C 1.7 °C 1019.2 hPa NW 1.9 km/h 1.9 km/h 29 % 0 mm
13:35 20.3 °C 2.2 °C 1019.2 hPa NW 3.7 km/h 3.7 km/h 30 % 0 mm
13:40 20.3 °C 1.7 °C 1019.2 hPa NW 3.7 km/h 3.7 km/h 29 % 0 mm
13:45 20.4 °C 1.7 °C 1018.8 hPa WNW 3.7 km/h 3.7 km/h 29 % 0 mm
13:50 20.3 °C 1.7 °C 1018.8 hPa WNW 5.6 km/h 5.6 km/h 29 % 0 mm
13:55 20.3 °C 2.2 °C 1018.8 hPa WNW 1.9 km/h 1.9 km/h 30 % 0 mm
14:00 20.4 °C 2.3 °C 1018.8 hPa NW 5.6 km/h 5.6 km/h 30 % 0 mm
14:05 20.5 °C 2.8 °C 1018.5 hPa ESE 1.9 km/h 1.9 km/h 31 % 0 mm
14:10 20.9 °C 2.2 °C 1018.5 hPa NNW 5.6 km/h 5.6 km/h 29 % 0 mm
14:15 21 °C 2.3 °C 1018.5 hPa North 1.9 km/h 1.9 km/h 29 % 0 mm
14:20 21.1 °C 2.3 °C 1018.5 hPa NW 5.6 km/h 5.6 km/h 29 % 0 mm
14:25 20.9 °C 2.7 °C 1018.5 hPa NW 1.9 km/h 1.9 km/h 30 % 0 mm
14:30 21.1 °C 1.8 °C 1018.5 hPa WNW 3.7 km/h 3.7 km/h 28 % 0 mm
14:35 21 °C 2.7 °C 1018.2 hPa NW 3.7 km/h 3.7 km/h 30 % 0 mm
14:40 20.9 °C 2.7 °C 1018.2 hPa NW 3.7 km/h 3.7 km/h 30 % 0 mm
14:45 21.1 °C 2.3 °C 1018.2 hPa NNW 5.6 km/h 5.6 km/h 29 % 0 mm
14:50 21.1 °C 2.8 °C 1018.2 hPa SSE 1.9 km/h 1.9 km/h 30 % 0 mm
14:55 21.2 °C 2.4 °C 1017.8 hPa NW 5.6 km/h 5.6 km/h 29 % 0 mm
15:00 21.2 °C 1.9 °C 1017.8 hPa WNW 5.6 km/h 5.6 km/h 28 % 0 mm
15:05 21.1 °C 1.9 °C 1017.8 hPa WNW 3.7 km/h 3.7 km/h 28 % 0 mm
15:10 21.1 °C 1.9 °C 1017.8 hPa Calm     28 % 0 mm
15:15 21.1 °C 1.9 °C 1017.5 hPa NW 3.7 km/h 3.7 km/h 28 % 0 mm
15:20 21.1 °C 2.4 °C 1017.5 hPa NNW 3.7 km/h 3.7 km/h 29 % 0 mm
15:25 21.1 °C 2.4 °C 1017.5 hPa Calm     29 % 0 mm
15:30 21 °C 1.3 °C 1017.5 hPa WNW 1.9 km/h   27 % 0 mm
15:35 20.9 °C 2.2 °C 1017.5 hPa NNW 1.9 km/h 1.9 km/h 29 % 0 mm
15:40 20.9 °C 1.7 °C 1017.5 hPa NW 5.6 km/h 5.6 km/h 28 % 0 mm
15:45 20.8 °C 2.1 °C 1017.5 hPa NW 1.9 km/h 1.9 km/h 29 % 0 mm
15:50 20.9 °C 2.2 °C 1017.5 hPa WNW 3.7 km/h   29 % 0 mm
15:55 20.9 °C 1.7 °C 1017.5 hPa WNW 5.6 km/h 5.6 km/h 28 % 0 mm
16:00 20.8 °C 1.6 °C 1017.5 hPa NW 1.9 km/h 1.9 km/h 28 % 0 mm
16:05 20.8 °C 2.1 °C 1017.5 hPa NW 3.7 km/h 3.7 km/h 29 % 0 mm
16:10 20.8 °C 2.6 °C 1017.5 hPa NW 5.6 km/h 5.6 km/h 30 % 0 mm
16:15 20.7 °C 2.4 °C 1017.5 hPa NW 5.6 km/h 5.6 km/h 30 % 0 mm
16:20 20.6 °C 2.4 °C 1017.5 hPa WNW 3.7 km/h 3.7 km/h 30 % 0 mm
16:25 20.5 °C 2.3 °C 1017.5 hPa NW 3.7 km/h 3.7 km/h 30 % 0 mm
16:30 20.4 °C 2.7 °C 1017.5 hPa NNW 3.7 km/h 3.7 km/h 31 % 0 mm
16:35 20.3 °C 2.6 °C 1017.5 hPa WNW 3.7 km/h 3.7 km/h 31 % 0 mm
16:40 20.2 °C 3 °C 1017.5 hPa NW 3.7 km/h 3.7 km/h 32 % 0 mm
16:45 20.1 °C 3.3 °C 1017.5 hPa NW 3.7 km/h 3.7 km/h 33 % 0 mm
16:50 19.9 °C 3.2 °C 1017.5 hPa NW 1.6 km/h 1.6 km/h 33 % 0 mm
16:55 19.8 °C 3.5 °C 1017.5 hPa NW 1.9 km/h 1.9 km/h 34 % 0 mm
17:00 19.7 °C 2.9 °C 1017.5 hPa NW 1.9 km/h 2.4 km/h 33 % 0 mm
17:05 19.5 °C 3.2 °C 1017.5 hPa NNW 3.7 km/h 3.7 km/h 34 % 0 mm
17:10 19.3 °C 3.1 °C 1017.5 hPa NW 1.9 km/h 1.9 km/h 34 % 0 mm
17:15 19.1 °C 2.9 °C 1017.5 hPa NW 3.7 km/h 3.7 km/h 34 % 0 mm
17:20 18.9 °C 3.1 °C 1017.2 hPa Calm     35 % 0 mm
17:25 18.6 °C 3.2 °C 1017.2 hPa Calm     36 % 0 mm
17:30 18.3 °C 3.7 °C 1017.2 hPa Calm     38 % 0 mm
17:35 17.9 °C 3.3 °C 1017.2 hPa Calm     38 % 0 mm
17:40 17.5 °C 3.4 °C 1017.2 hPa Calm     39 % 0 mm
17:45 17.1 °C 3.7 °C 1017.2 hPa Calm     41 % 0 mm
17:50 16.7 °C 4 °C 1017.2 hPa Calm     43 % 0 mm
17:55 16.2 °C 3.2 °C 1017.2 hPa Calm     42 % 0 mm
18:00 15.9 °C 3.7 °C 1017.2 hPa Calm     44 % 0 mm
18:05 15.6 °C 3.7 °C 1017.2 hPa Calm     45 % 0 mm
18:10 15.4 °C 4.1 °C 1017.2 hPa Calm     47 % 0 mm
18:15 15.1 °C 4.2 °C 1017.2 hPa Calm     48 % 0 mm
18:20 14.7 °C 4.4 °C 1017.2 hPa Calm     50 % 0 mm
18:26 14.4 °C 4.4 °C 1017.2 hPa Calm     51 % 0 mm
18:31 14 °C 4.6 °C 1017.2 hPa Calm     53 % 0 mm
18:36 13.7 °C 3.8 °C 1017.2 hPa Calm     51 % 0 mm
18:41 13.5 °C 4.4 °C 1017.2 hPa Calm     54 % 0 mm
18:46 13.2 °C 4.6 °C 1017.2 hPa Calm     56 % 0 mm
18:51 12.8 °C 4.8 °C 1017.2 hPa Calm     58 % 0 mm
18:56 12.5 °C 4.9 °C 1017.2 hPa Calm     60 % 0 mm
19:01 12.3 °C 4.5 °C 1017.2 hPa Calm     59 % 0 mm
19:06 12.2 °C 4.4 °C 1017.2 hPa Calm     59 % 0 mm
19:11 12.1 °C 4.1 °C 1017.2 hPa Calm     58 % 0 mm
19:16 12 °C 4 °C 1017.2 hPa Calm     58 % 0 mm
19:21 11.8 °C 4 °C 1017.2 hPa Calm     59 % 0 mm
19:26 11.6 °C 4.1 °C 1017.2 hPa Calm     60 % 0 mm
19:31 11.5 °C 4 °C 1017.2 hPa Calm     60 % 0 mm
19:36 11.4 °C 4.1 °C 1017.2 hPa Calm     61 % 0 mm
19:41 11.4 °C 4.2 °C 1017.2 hPa Calm     61 % 0 mm
19:46 11.4 °C 4.2 °C 1017.2 hPa Calm     61 % 0 mm
19:51 11.3 °C 4 °C 1017.2 hPa Calm     61 % 0 mm
19:56 11.2 °C 3.9 °C 1017.2 hPa Calm     61 % 0 mm
20:01 11.1 °C 4.1 °C 1017.2 hPa Calm     62 % 0 mm
20:06 10.8 °C 3.8 °C 1017.2 hPa Calm     62 % 0 mm
20:11 10.8 °C 4 °C 1017.2 hPa Calm     63 % 0 mm
20:16 10.8 °C 4.9 °C 1017.2 hPa Calm     67 % 0 mm
20:21 10.6 °C 5.2 °C 1016.8 hPa Calm     69 % 0 mm
20:26 10.2 °C 4.6 °C 1017.2 hPa Calm     68 % 0 mm
20:31 10 °C 4.2 °C 1017.2 hPa Calm     67 % 0 mm
20:36 9.9 °C 4.5 °C 1017.2 hPa Calm     69 % 0 mm
20:41 9.7 °C 4.1 °C 1017.2 hPa Calm     68 % 0 mm
20:46 9.7 °C 4.3 °C 1017.2 hPa Calm     69 % 0 mm
20:51 9.6 °C 4.2 °C 1017.2 hPa Calm     69 % 0 mm
20:56 9.4 °C 4.1 °C 1017.2 hPa Calm     69 % 0 mm
21:01 9.5 °C 4.3 °C 1017.2 hPa Calm     70 % 0 mm
21:06 9.4 °C 4.2 °C 1017.5 hPa Calm     70 % 0 mm
21:11 9.2 °C 4.1 °C 1017.5 hPa Calm     70 % 0 mm
21:16 9.1 °C 4.1 °C 1017.5 hPa Calm     71 % 0 mm
21:21 8.9 °C 4.1 °C 1017.5 hPa Calm     72 % 0 mm
21:26 8.7 °C 4.2 °C 1017.5 hPa Calm     73 % 0 mm
21:31 8.7 °C 4.1 °C 1017.5 hPa Calm     73 % 0 mm
21:36 8.7 °C 3.9 °C 1017.5 hPa Calm     72 % 0 mm
21:41 8.7 °C 3.9 °C 1017.5 hPa Calm     72 % 0 mm
21:46 8.6 °C 3.8 °C 1017.5 hPa Calm     72 % 0 mm
21:51 8.8 °C 3.8 °C 1017.2 hPa Calm     71 % 0 mm
21:56 8.8 °C 3.6 °C 1017.5 hPa Calm     70 % 0 mm
22:01 8.6 °C 3.8 °C 1017.5 hPa Calm     72 % 0 mm
22:06 8.4 °C 3.6 °C 1017.5 hPa Calm     72 % 0 mm
22:11 8.2 °C 3.7 °C 1017.2 hPa Calm     73 % 0 mm
22:16 7.9 °C 3.6 °C 1017.2 hPa Calm     74 % 0 mm
22:21 7.7 °C 3.5 °C 1017.2 hPa Calm     75 % 0 mm
22:26 7.6 °C 3.7 °C 1017.2 hPa Calm     76 % 0 mm
22:31 7.4 °C 3.7 °C 1017.2 hPa Calm     77 % 0 mm
22:36 7.3 °C 3.6 °C 1017.2 hPa Calm     77 % 0 mm
22:41 7.4 °C 4 °C 1016.8 hPa Calm     79 % 0 mm
22:46 7.4 °C 3.7 °C 1016.8 hPa Calm     77 % 0 mm
22:51 7.4 °C 3.6 °C 1016.8 hPa Calm     77 % 0 mm
22:56 7.5 °C 3.9 °C 1016.8 hPa Calm     78 % 0 mm
23:01 7.4 °C 3.7 °C 1016.8 hPa Calm     77 % 0 mm
23:06 7.3 °C 3.9 °C 1016.8 hPa Calm     79 % 0 mm
23:11 6.9 °C 3.4 °C 1016.8 hPa Calm     78 % 0 mm
23:16 6.7 °C 3.3 °C 1016.8 hPa Calm     79 % 0 mm
23:21 6.5 °C 3.3 °C 1016.8 hPa Calm     80 % 0 mm
23:26 6.4 °C 3.2 °C 1016.5 hPa Calm     80 % 0 mm
23:31 6.5 °C 3.3 °C 1016.5 hPa Calm     80 % 0 mm
23:36 6.8 °C 3.6 °C 1016.5 hPa Calm     80 % 0 mm
23:41 7.1 °C 3.7 °C 1016.5 hPa Calm     79 % 0 mm
23:46 7.1 °C 3.3 °C 1016.5 hPa Calm     77 % 0 mm
23:51 6.8 °C 3.3 °C 1016.5 hPa Calm     78 % 0 mm
23:56 6.6 °C 2.8 °C 1016.5 hPa Calm     77 % 0 mm
Park Place, Exeter, Tulare County, California, USA
Compliments of Weather Underground - 2.75 mb